Estación Meteorológica Peña el Pijo (Robertgarden) [ 02/19/20 14:37:11 CET ]

Fecha Hora Presion(HPa) Temp (°C) Humedad % Rocio (°C) Viento ( m/s) Direccion Lluvia 1Hora(mm) Lluvia 24H(mm) LLuvia Total(mm)
2020-Jan-01 01:09:02 1019.200 - - - - N     39.88
2020-Jan-01 02:11:28 1018.600 - - - - N     39.88
2020-Jan-01 03:09:48 1018.700 - - - - N     39.88
2020-Jan-01 04:09:33 1018.700 - - - - N     39.88
2020-Jan-01 05:09:33 1018.300 - - - - N     39.88
2020-Jan-01 06:09:45 1018.300 - - - - N     39.88
2020-Jan-01 07:09:23 1018.400 - - - - N     39.88
2020-Jan-01 08:09:14 1018.500 - - - - N     39.88
2020-Jan-01 09:09:12 1019.000 - - - - N     39.88
2020-Jan-01 10:09:20 1019.500 - - - - N     39.88
2020-Jan-01 11:08:47 1019.900 - - - - N     39.88
2020-Jan-01 12:09:07 1019.400 - - - - N     39.88
2020-Jan-01 13:09:12 1018.300 - - - - N     39.88
2020-Jan-01 14:08:56 1017.200 - - - - N     39.88
2020-Jan-01 15:09:12 1017.000 - - - - N     39.88
2020-Jan-01 16:09:19 1017.300 - - - - N     39.88
2020-Jan-01 17:09:07 1017.400 - - - - N     39.88
2020-Jan-01 18:09:05 1018.100 - - - - N     39.88
2020-Jan-01 19:09:11 1018.600 - - - - N     39.88
2020-Jan-01 20:08:57 1019.100 - - - - N     39.88
2020-Jan-01 21:09:18 1019.100 - - - - N     39.88
2020-Jan-01 22:08:54 1019.600 - - - - N     39.88
2020-Jan-01 23:09:28 1019.400 - - - - N     39.88

Temperatura Máxima:    Temperatura Mínima:
Presión Máxima:1019.900 Hpa    Presión Mínima:1017.000 Hpa


Volver